Weather in Shulgino

Russia / Tambov Oblast     52°12′32″N   40°50′00″E
temp.,
°C
wind,
m/s
gust,
m/s
humid.,
%
clouds,
%
prec.,
mm/h
press.,
hPa
HPBL,
m
4 march, thu
thu400:00−2w61192100 0.0 1015462
03:00−2w51192100 0.1 1013655
06:00−1wsw71391100 0.1 1011548
09:00−2wsw8159095 0.1 1010533
12:000wsw8158429 0.0 1008694
15:00+1wsw8158530 0.0 1006845
18:000wsw5148893 0.0 1004600
21:00+1w6119297 0.0 1003651
5 march, fri
fri500:000wsw51097100 0.2 1002534
03:000wsw61198100 0.4 1003564
06:00−2wnw51096100 0.3 1004435
09:00−2nw5795100 0.4 1006429
12:00−2nnw359185 0.0 1009474
15:00−1nw358889 0.1 1011579
18:00−5wnw229289 0.0 101221
21:00−6nw129283 0.0 101521
6 march, sat
sat600:00−7n129492 0.0 101521
03:00−8ne229296 0.0 101621
06:00−8e2291100 0.0 101621
09:00−7e2292100 0.0 101596
12:00−5ene2286100 0.0 1015252
15:00−4e228780 0.0 1014338
18:00−8ese229245 0.0 101421
21:00−9s009358 0.1 101621
7 march, sun
sun700:00−9w239782 0.1 101625
03:00−10wnw499685 0.2 1017220
06:00−12w359464 0.1 101895
09:00−8sw6138743 0.1 1016522
12:00−4sw91476100 0.0 10131061
15:00−3sw91670100 0.0 10091215
18:00−3wsw101891100 0.2 10061191
21:00−2wsw101788100 0.9 10051069
8 march, mon
mon800:00−7wnw2790100 1.3 1005206
03:00−7sw4793100 1.3 1005149
06:00−5s2497100 0.6 1003158
09:00−2wsw91496100 1.9 10011009
12:00−3w10157994 0.7 10031577
15:00−6w8137264 0.8 10071233
18:00−9wnw512830 0.0 1010320
21:00−11w34890 0.0 101350